Skip Page Navigation
NASA JPL Caltech
NASA Logo - Jet Propulsion Laboratory + View the NASA Portal
+ Center for Near-Earth Object Studies
JPL Home Earth Solar System Stars & Galaxies Technology
JPL Solar System Dynamics
BODIES ORBITS EPHEMERIDES TOOLS PHYSICAL DATA DISCOVERY FAQ SITE MAP

Significant website upgrade scheduled for September 27. More details available here.

JPL Small-Body Database Browser
Search: [ help ]  
362433 (2010 RP48)
Classification: Main-belt Asteroid          SPK-ID: 2362433
Ephemeris | Orbit Diagram | Orbital Elements | Mission Design | Physical Parameters | Discovery Circumstances ]

[ hide orbit diagram ]

For accurate long-term ephemerides, please instead use our Horizons system.This orbit viewer was implemented using two-body methods, and hence should not be used for determining accurate long-term trajectories (over several years or decades) or planetary encounter circumstances.


Orbital Elements at Epoch 2459396.5 (2021-Jul-01.0) TDB
Reference: JPL 15 (heliocentric ecliptic J2000)
 Element Value Uncertainty (1-sigma)   Units 
e .2240626498503058 5.0832e-08  
a 2.396377741759364 1.0595e-08 au
q 1.85943899489847 1.2215e-07 au
i 2.113834145349579 6.1537e-06 deg
node 185.5926921106821 0.00013884 deg
peri 124.3723079805669 0.00013968 deg
M 2.865010877733681 1.2881e-05 deg
tp 2459385.716614855701
(2021-Jun-20.21661486)
4.8489e-05 TDB
period 1354.975187744583
3.71
8.9863e-06
2.46e-08
d
yr
n .2656875219975329 1.7621e-09 deg/d
Q 2.933316488620259 1.2969e-08 au
  Orbit Determination Parameters
   # obs. used (total)      187  
   data-arc span      7969 days (21.82 yr)  
   first obs. used      1999-10-14  
   last obs. used      2021-08-08  
   planetary ephem.      DE441  
   SB-pert. ephem.      SB441-N16  
   condition code      0  
   norm. resid. RMS      .49859  
   source      ORB  
   producer      Otto Matic  
   solution date      2021-Aug-25 04:31:09  

Additional Information
 Earth MOID = .845427 au 
 Jupiter MOID = 2.34359 au 
 T_jup = 3.493 
[ hide covariance matrix ]
Orbital Elements at Epoch 2457569.5 (2016-Jun-30.0) TDB
Reference: JPL 15 (heliocentric ecliptic J2000)
 Element Value Uncertainty (1-sigma)   Units 
e .2235073880707159 5.0969e-08  
q 1.861503817674566 1.2236e-07 au
tp 2458030.262059858610
(2017-Oct-03.76205986)
5.0392e-05 TDB
node 185.6193429745731 0.00013895 deg
peri 124.1668328686512 0.00013979 deg
i 2.11182505713656 6.1528e-06 deg
  Orbit Determination Parameters
   # obs. used (total)      187  
   data-arc span      7969 days (21.82 yr)  
   first obs. used      1999-10-14  
   last obs. used      2021-08-08  
   planetary ephem.      DE441  
   SB-pert. ephem.      SB441-N16  
   condition code      0  
   norm. resid. RMS      .49859  
   source      ORB  
   producer      Otto Matic  
   solution date      2021-Aug-25 04:31:09  

Additional Information
 Jupiter MOID = 2.34359 au 
 T_jup = 3.493 
Orbit Covariance (6×6)
  e q tp node peri i
e 2.597879649540811E-15 -6.222499984829321E-15 6.632441931258724E-13 -7.00124003747477E-14 1.795490740725831E-13 -3.749351566621569E-15
q -6.222499984829321E-15 1.497118439050519E-14 -1.693450655454783E-12 1.621018864624636E-13 -4.630689366401137E-13 8.876331349732442E-15
tp 6.632441931258724E-13 -1.693450655454783E-12 2.539386669931346E-9 -3.599204031438394E-11 7.98802855949277E-10 -3.845365280351203E-12
node -7.00124003747477E-14 1.621018864624636E-13 -3.599204031438394E-11 1.930638861515273E-8 -1.929896648438682E-8 -6.230458684038003E-11
peri 1.795490740725831E-13 -4.630689366401137E-13 7.98802855949277E-10 -1.929896648438682E-8 1.954111305753653E-8 6.131960547383696E-11
i -3.749351566621569E-15 8.876331349732442E-15 -3.845365280351203E-12 -6.230458684038003E-11 6.131960547383696E-11 3.785707227070392E-11

Ephemeris | Orbit Diagram | Orbital Elements | Mission Design | Physical Parameters | Discovery Circumstances ]

Physical Parameter Table
Parameter Symbol Value Units Sigma Reference Notes
absolute magnitude H 17.33   n/a MPO638941  

362433 (2010 RP48)          Discovered 2010-Sep-04 by Spacewatch at Kitt Peak
Reference: Last Updated: 2013-04-29

Alternate Designations
 2010 RP48 = 2009 FB13 
Ephemeris | Orbit Diagram | Orbital Elements | Mission Design | Physical Parameters | Discovery Circumstances ]
ABOUT SSD CREDITS/AWARDS PRIVACY/COPYRIGHT GLOSSARY LINKS
FirstGov 2021-Sep-18 11:43 UT
(server date/time)  
NASA Home Page
Site Manager:   Ryan S. Park
Webmaster  Alan B. Chamberlin